Wind_Speed
11 12 13 13 11 7 4 3 6 23 10 8 9 9 10 13 20 23 20 17 15 20 24 16 12 8 9 5 3 14 11 11 13 13 11 12 13 12 12 12 15 11 11 7 4
10 11 12 12 12 10 7 5 6 18 19 11 6 9 9 11 13 32 19 15 12 18 19 18 17 16 10 15 13 16 13 14 15 15 11 13 11 6 6 9 9 9 8 4 5
9 10 11 12 10 12 12 9 7 6 17 14 8 3 5 6 4 18 24 15 8 9 11 6 13 18 22 20 19 21 17 16 14 13 14 11 9 3 1 9 7 5 4 4 6
8 10 10 12 11 11 18 17 8 8 11 11 18 12 6 7 5 19 26 11 12 11 11 2 11 17 18 20 18 23 17 15 12 9 9 10 8 7 10 7 5 4 5 4 7
8 10 10 11 11 11 16 19 14 14 11 13 7 3 13 15 13 17 19 17 4 11 12 6 11 10 14 18 19 17 15 14 12 11 8 5 6 7 6 4 2 1 4 5 5
7 9 9 8 9 8 10 12 13 14 20 25 29 9 15 22 12 15 18 16 21 14 17 17 17 13 10 8 6 13 14 12 10 10 3 5 5 4 7 3 4 5 6 6 5
8 9 8 6 4 7 12 7 8 13 14 14 6 22 27 12 10 13 14 19 19 17 14 6 3 4 13 16 16 16 14 12 8 3 5 4 9 4 7 5 6 7 7 7 9
9 9 8 5 3 3 7 11 9 13 5 6 15 18 9 10 10 10 14 16 16 13 16 17 17 12 7 15 11 12 11 6 7 3 5 4 10 9 7 7 6 7 8 8 9
10 9 7 12 13 6 5 4 5 8 6 6 3 9 7 7 12 9 7 8 8 6 7 8 10 11 11 9 8 7 7 6 7 3 0 3 7 11 7 4 6 9 10 10 10
9 10 0 2 4 6 6 4 11 13 7 6 4 11 7 7 8 5 3 2 4 3 10 8 3 11 12 10 7 9 9 8 7 5 3 7 8 7 10 6 6 10 10 12 13
6 9 9 5 9 12 17 13 4 8 22 18 13 14 6 13 11 11 3 3 3 4 10 14 12 12 13 10 6 9 8 9 7 5 5 2 7 4 5 2 6 10 13 14 12
5 7 9 8 7 5 8 5 8 6 9 12 15 13 7 2 7 15 18 4 1 6 6 11 13 8 4 10 4 8 11 9 2 2 2 9 9 3 6 8 6 9 10 14 14
4 7 8 7 7 11 13 10 9 9 2 5 6 7 4 10 8 11 13 5 6 9 12 15 5 3 4 10 13 10 9 7 6 12 8 12 6 5 8 4 5 5 11 13 13
5 6 8 9 5 4 6 10 9 7 4 5 1 4 3 1 4 7 9 3 3 6 5 6 2 5 7 8 10 2 10 7 7 9 6 3 6 9 2 7 12 11 11 12 13
5 6 6 10 9 4 8 9 8 3 3 2 5 1 4 4 1 4 8 4 9 6 3 3 3 7 8 6 7 5 7 7 6 8 9 2 5 6 10 12 14 13 12 11 10
5 4 3 3 2 5 8 9 5 3 3 4 3 3 4 5 4 1 1 2 1 2 7 6 2 3 6 7 6 11 13 16 8 6 6 4 4 3 8 12 13 12 13 11 10
3 4 4 5 4 9 9 7 2 3 0 5 4 2 2 2 3 3 4 7 7 6 1 8 5 4 6 10 3 13 16 3 5 5 2 2 2 2 8 9 7 10 12 12 10
3 3 2 2 5 7 5 3 6 4 2 5 3 3 3 3 5 1 3 3 10 11 10 7 3 6 7 5 5 8 7 3 4 6 8 4 4 1 1 7 10 10 10 11 10
1 2 2 5 4 4 4 3 3 10 5 2 4 4 5 3 4 2 2 5 7 10 7 7 3 5 5 3 5 6 4 4 4 8 5 3 4 2 3 9 10 11 11 9 9
5 4 2 4 3 2 5 1 1 3 5 4 5 0 6 6 3 1 2 3 3 6 6 4 4 1 3 3 3 2 3 2 2 5 5 4 6 3 8 10 11 11 10 9 9
4 3 1 2 1 4 4 3 1 1 4 3 3 4 3 3 3 4 3 4 2 3 5 6 2 3 3 6 4 3 3 2 2 3 3 5 2 2 3 6 9 12 10 8 7
5 2 0 1 4 4 4 3 4 3 2 2 3 4 4 5 4 2 2 5 4 4 4 4 4 5 6 6 3 2 5 3 2 2 5 3 5 3 2 4 10 10 10 8 6
3 3 1 1 1 2 2 2 3 3 4 3 3 1 3 3 3 2 3 3 3 2 4 5 2 6 6 3 4 3 2 4 6 2 6 3 2 6 6 7 11 10 9 8 7
4 1 3 4 4 5 5 7 6 1 5 3 4 1 4 6 6 3 3 4 2 2 3 2 3 6 6 12 13 12 12 9 7 4 4 10 17 13 12 10 12 8 7 7 7
4 2 2 2 4 6 4 6 7 5 5 4 4 9 7 5 7 8 6 7 5 6 2 2 5 9 13 17 18 16 17 15 14 12 6 6 9 16 15 11 6 6 6 8 8
4 4 2 4 1 5 3 6 9 7 5 6 8 8 4 9 9 11 4 4 7 7 4 6 4 10 13 16 2 12 17 14 16 14 17 18 22 19 14 8 6 4 6 6 8
4 4 4 1 4 6 7 7 5 5 2 7 8 7 9 4 8 8 4 6 7 6 8 5 4 6 5 10 10 11 8 12 11 11 7 12 17 7 10 10 8 7 7 6 7
Wind_Direction
61 60 55 53 52 54 54 39 20 13 352 285 287 316 358 6 48 45 38 330 320 342 325 306 291 18 27 54 319 110 92 84 111 119 121 127 88 73 75 77 61 62 65 63 42
62 56 49 45 45 55 41 8 350 15 39 24 303 292 323 348 43 37 5 357 342 338 345 53 51 41 50 36 23 87 86 77 82 107 111 82 88 111 102 99 97 98 98 64 4
60 50 45 41 49 32 26 16 4 9 14 19 17 300 295 301 324 10 3 2 0 340 353 32 87 78 64 56 55 82 98 94 77 92 96 108 81 11 46 93 56 55 41 19 345
55 44 39 37 35 30 51 38 38 34 13 32 69 70 76 245 57 352 357 16 354 316 295 146 78 72 86 80 84 91 88 92 89 82 79 85 83 72 56 80 75 69 349 332 337
50 35 35 36 45 58 44 42 64 57 41 28 8 33 80 70 38 7 8 4 344 28 41 79 87 62 89 96 88 91 95 93 87 77 86 109 62 118 112 106 138 26 253 303 323
44 26 28 32 42 42 11 35 69 74 67 64 57 82 79 69 7 26 31 37 47 64 63 62 77 86 80 63 60 118 110 108 108 97 77 133 120 261 126 170 216 241 281 291 312
34 21 18 21 38 47 26 37 33 71 68 56 51 82 60 58 28 44 44 52 59 62 75 61 15 69 100 92 116 131 130 133 112 90 110 336 186 185 120 188 259 265 268 300 304
33 20 14 23 37 15 27 35 64 46 48 74 81 69 77 38 42 44 61 61 60 66 78 75 82 89 80 122 154 174 186 162 118 193 130 214 97 124 163 211 269 311 308 294 283
34 30 65 76 72 78 60 15 331 342 355 339 292 81 65 39 48 37 25 36 37 75 82 124 115 113 147 176 184 194 49 39 132 86 253 222 339 143 168 228 282 306 319 311 305
35 33 4 36 47 25 22 22 343 0 254 277 2 113 43 51 25 64 1 328 290 210 173 207 109 54 32 43 44 18 6 15 66 92 333 285 280 143 167 198 280 288 309 339 335
29 23 27 332 313 303 305 301 222 58 59 59 71 91 120 105 51 29 6 309 209 38 78 55 72 42 34 24 22 14 348 22 52 65 324 310 299 294 110 270 306 322 334 318 317
8 11 11 43 21 328 327 48 52 31 71 80 90 83 66 11 45 17 357 65 151 78 121 118 62 17 347 31 16 29 11 3 146 161 270 313 306 284 62 15 325 305 304 344 338
341 355 1 356 21 66 56 44 16 356 193 83 79 67 51 55 42 20 0 355 26 62 55 60 60 336 345 37 351 73 12 329 317 314 255 306 233 194 128 271 223 355 2 347 343
317 332 346 335 323 355 46 1 355 353 222 120 156 68 23 350 74 18 349 319 70 29 23 67 85 330 351 45 355 29 5 309 303 327 353 31 329 108 66 320 2 14 7 346 345
321 317 338 21 327 25 351 339 336 295 207 54 90 1 87 56 123 86 9 38 50 41 286 84 17 355 21 3 344 3 317 301 317 306 296 144 325 117 43 351 355 354 341 341 354
360 340 345 333 345 1 325 324 308 239 69 118 117 133 168 55 54 146 80 87 22 303 58 103 93 17 2 305 261 289 272 236 230 252 244 7 23 303 14 356 335 340 328 346 349
33 38 18 345 347 331 327 294 314 76 130 131 133 183 50 85 113 4 6 45 26 320 231 159 113 107 335 328 205 343 342 49 222 209 11 341 322 62 6 340 326 331 348 351 357
33 60 33 19 323 327 315 252 76 21 64 42 144 149 316 358 124 89 265 153 57 351 305 337 192 11 26 40 319 321 345 32 301 342 313 185 234 334 185 280 10 349 358 352 354
343 334 258 298 333 335 266 44 261 3 47 171 173 252 146 157 309 283 57 31 40 21 7 352 82 128 59 352 341 348 33 345 277 255 266 232 137 151 202 9 0 354 357 354 347
309 254 134 301 327 286 247 234 301 5 317 278 276 58 330 120 253 255 82 33 69 28 357 25 299 59 106 234 168 339 335 229 228 316 317 328 305 34 4 348 350 343 353 350 355
284 239 91 266 317 233 231 232 152 92 323 315 317 294 303 336 321 322 37 83 30 55 322 348 269 148 208 192 3 185 205 201 234 263 306 314 310 249 315 347 336 346 350 354 350
273 238 62 108 237 243 255 13 358 172 215 214 297 299 291 355 297 260 349 63 31 353 2 52 313 283 348 76 14 308 303 271 287 58 282 267 272 255 198 302 4 345 343 349 340
259 69 102 218 107 291 129 193 284 222 229 187 254 277 51 290 282 226 98 67 89 316 11 3 260 297 150 164 169 213 266 239 265 138 243 289 273 191 175 17 353 338 336 336 330
282 121 134 218 290 291 221 237 204 293 289 272 283 328 235 250 226 259 185 127 149 59 56 332 262 255 272 296 301 296 281 223 221 253 287 252 276 297 338 338 327 324 325 312 317
256 303 36 247 284 248 304 313 237 187 227 223 229 241 244 255 263 239 240 148 173 149 215 249 267 271 280 291 291 280 276 264 238 211 236 279 316 291 301 288 251 231 283 301 301
312 336 168 292 292 260 183 269 259 254 181 224 243 292 245 252 263 300 315 239 255 155 209 187 276 307 292 288 330 281 273 262 255 240 225 252 274 279 274 299 177 268 305 277 286
47 261 288 328 212 245 238 238 274 283 214 273 319 272 264 322 5 13 345 311 297 199 200 224 258 322 271 319 304 284 272 234 232 234 212 236 251 295 292 313 303 271 256 260 253
Height
819 819 818 816 814 813 812 810 809 805 801 800 800 797 796 796 795 793 795 802 792 786 781 775 771 769 766 761 755 754 786 805 812 822 839 835 844 846 849 855 859 861 866 868 868
822 821 820 818 817 815 813 811 809 806 802 800 799 798 797 797 797 797 803 797 794 788 780 777 775 775 774 771 764 770 805 821 816 823 833 835 843 846 846 851 856 861 865 866 866
824 823 822 820 818 816 814 811 809 807 804 803 799 798 799 800 798 806 802 798 794 790 786 784 781 784 787 785 786 793 819 823 826 826 832 842 846 843 846 854 861 862 863 865 864
827 826 824 822 819 818 816 813 810 810 808 805 802 800 799 799 821 811 803 799 794 790 787 786 783 793 797 805 805 818 824 830 834 833 836 844 847 854 853 861 862 865 867 865 866
828 827 825 824 822 821 819 816 813 812 810 807 805 802 802 805 815 813 806 799 795 792 790 788 792 796 808 812 818 830 836 838 840 843 846 844 852 855 861 862 864 866 866 865 864
830 829 827 826 824 823 821 820 817 815 813 810 805 803 805 813 817 815 810 803 798 796 796 794 796 799 807 815 818 832 837 842 845 848 848 849 856 857 859 863 863 863 861 860 861
832 831 829 828 826 825 824 822 820 818 815 813 812 811 809 822 820 817 815 811 807 804 803 805 804 804 817 826 826 833 842 840 843 847 851 850 854 851 855 860 858 857 855 855 857
834 832 830 829 828 827 826 824 822 820 817 815 813 814 821 825 822 818 817 815 813 811 811 810 809 810 817 825 830 830 830 835 843 842 851 853 846 848 851 853 853 851 850 849 849
836 834 833 831 829 828 826 824 822 821 818 815 814 814 825 824 823 822 820 817 815 814 813 813 811 818 824 823 829 820 824 827 845 840 843 846 843 841 846 850 851 849 847 846 846
838 836 835 834 832 830 827 825 822 820 817 816 814 819 826 829 824 822 822 819 815 811 810 809 808 819 822 811 841 839 832 824 834 841 841 842 836 831 837 844 846 845 842 844 845
839 838 837 835 834 832 828 825 824 825 822 822 824 825 827 826 825 822 820 815 811 809 823 816 832 847 844 838 832 830 828 830 829 841 847 836 834 827 830 836 840 840 843 845 842
840 839 838 836 834 831 829 824 828 829 833 826 827 828 828 826 825 826 817 814 814 825 818 826 850 848 835 835 837 835 840 842 833 839 845 834 836 827 831 839 842 843 842 840 838
841 840 839 838 835 834 833 833 832 832 826 831 828 830 831 830 834 833 827 823 823 827 831 838 852 845 839 838 842 843 855 852 848 837 829 833 825 831 835 833 834 835 836 838 838
842 841 840 838 839 835 836 836 835 834 831 835 829 830 828 828 837 834 832 830 829 837 834 846 849 845 835 841 850 839 852 850 844 841 842 833 846 833 833 835 832 834 837 839 839
842 842 842 841 839 836 841 838 837 836 849 832 832 831 827 831 834 834 834 826 836 837 838 852 845 847 844 855 852 849 849 850 847 845 839 831 832 830 827 839 837 837 837 837 838
843 842 842 842 842 842 840 838 838 843 860 837 828 831 830 830 833 832 833 831 834 834 836 843 845 848 853 848 847 843 839 834 840 842 849 838 842 837 841 842 840 838 836 835 836
844 843 844 843 842 842 839 837 846 868 832 838 833 829 831 835 835 834 835 836 840 847 839 841 844 849 851 843 841 838 834 829 842 846 848 846 845 843 837 837 836 835 833 834 835
846 844 844 844 842 841 840 838 893 832 830 825 829 833 835 834 837 837 835 834 835 841 838 837 846 851 853 860 864 851 851 865 874 854 848 843 855 844 833 830 828 830 832 833 834
847 845 845 843 842 842 840 869 847 832 825 832 832 837 835 837 841 837 837 841 849 848 857 853 852 855 858 857 860 855 860 860 869 850 858 825 835 832 823 827 829 832 832 833 833
847 845 843 843 842 843 840 852 837 833 831 828 839 832 833 834 841 838 838 847 850 853 850 850 858 850 858 859 859 859 861 866 863 871 866 835 830 833 832 833 831 831 830 831 831
847 840 844 843 843 839 847 837 835 834 834 837 836 837 833 838 839 837 841 853 852 853 853 852 856 855 854 856 848 857 853 860 864 862 867 862 840 831 833 833 833 829 826 828 831
844 840 843 844 842 828 835 832 848 835 836 836 839 838 839 837 839 840 844 849 857 857 859 862 864 863 841 848 849 852 854 853 869 859 859 855 857 818 826 830 828 828 825 827 828
837 837 844 844 870 853 838 838 838 839 836 838 839 839 839 843 850 841 844 861 861 859 865 866 862 865 859 856 851 852 848 852 854 862 873 864 835 814 817 826 828 827 826 827 828
840 850 841 842 835 838 838 839 843 842 840 838 839 841 843 845 839 846 847 861 863 862 875 873 864 865 865 851 843 847 840 842 854 870 855 843 827 814 819 832 829 829 830 829 827
840 841 840 870 846 838 836 835 837 844 843 841 840 842 842 849 840 843 840 860 864 874 870 869 868 855 848 842 839 840 837 835 843 855 860 831 844 829 829 834 837 829 826 826 825
845 842 841 837 840 840 846 841 839 832 837 842 847 835 837 846 842 844 840 843 849 867 866 864 868 857 853 835 846 837 828 827 825 829 847 842 840 820 813 810 822 818 819 822 823
846 846 846 846 837 841 839 837 834 833 831 835 838 839 840 841 840 840 843 846 845 852 863 861 863 859 856 834 840 841 815 811 819 816 831 840 824 817 817 819 821 819 818 819 819